Wind_Speed
24 24 24 24 25 25 26 26 27 27 27 27 26 25 25 25 25 26 26 26 26 26 26 26 26 27 27 28 29 30 30 30 30 30 30 30 30 30 30 31 31 31
24 24 25 25 25 25 26 26 27 27 27 27 26 25 25 24 25 25 26 26 26 26 26 26 26 27 27 27 28 29 30 31 31 32 32 32 32 31 31 32 32 32
25 25 25 25 25 26 26 26 26 27 27 27 27 26 25 25 25 26 26 26 26 26 27 27 27 27 28 28 29 29 30 31 32 33 33 34 34 34 34 34 34 34
27 27 26 26 26 26 27 27 27 27 27 27 27 28 28 27 27 27 28 28 28 28 29 29 29 30 30 30 31 31 31 32 32 33 34 35 36 36 37 38 38 38
27 28 29 28 28 28 28 28 28 28 28 28 29 29 30 30 30 30 30 30 30 30 31 31 31 32 33 33 33 34 34 34 34 35 35 36 37 38 39 40 40 41
25 26 27 28 29 29 30 30 30 30 30 30 30 31 31 32 32 32 32 32 32 32 32 33 33 34 34 35 35 36 36 37 37 37 37 38 39 39 40 40 41 42
22 23 23 24 25 26 28 29 30 31 32 32 33 33 33 33 33 34 34 34 34 34 35 35 35 36 36 36 37 38 38 38 39 39 39 40 40 41 41 42 43 43
23 24 24 23 23 23 24 25 26 27 28 29 31 32 33 34 34 35 35 36 36 37 37 37 36 36 37 37 38 38 39 39 40 41 41 42 42 43 43 44 44 45
24 25 26 26 25 24 24 24 24 24 25 25 26 28 29 30 32 33 33 34 35 35 35 35 35 36 37 37 38 39 40 40 41 41 42 43 44 44 45 46 46 47
27 29 29 29 28 27 27 27 26 26 26 26 27 28 29 30 30 31 31 31 32 32 33 34 35 36 37 38 39 40 41 42 42 43 43 44 44 45 46 47 47 48
32 33 33 32 31 31 31 31 30 29 29 29 30 31 31 31 32 32 33 33 34 34 35 36 37 37 37 37 38 39 40 41 42 43 44 45 45 46 46 47 47 48
34 33 33 34 34 35 37 37 36 35 34 34 34 34 34 34 34 35 36 36 37 37 38 38 38 38 37 37 37 37 37 37 38 39 40 41 42 43 44 45 46 46
34 34 36 38 39 40 40 41 41 41 41 40 39 38 38 38 38 38 38 39 40 40 40 40 40 39 38 37 36 36 35 35 35 36 37 37 37 38 39 40 42 43
38 39 41 42 43 43 43 45 46 46 46 45 43 41 40 40 40 40 40 41 42 42 42 42 42 41 40 38 37 36 36 36 36 36 36 36 36 36 37 39 40 41
42 43 43 42 43 45 48 51 51 50 50 50 47 44 43 43 43 42 42 43 44 45 45 45 45 44 42 40 39 38 37 37 37 37 37 37 37 38 39 40 41 42
47 48 47 47 47 49 52 55 55 54 52 50 47 44 43 43 43 43 44 45 46 47 47 47 47 45 44 42 41 40 39 39 38 38 39 39 39 41 42 43 44 45
51 51 51 51 51 50 51 55 57 53 47 45 45 44 44 44 45 45 46 48 51 51 50 50 49 46 44 43 43 42 41 41 40 40 41 41 42 44 45 46 47 48
52 52 53 53 53 51 50 53 57 55 51 50 50 50 49 49 48 47 47 50 53 54 54 52 49 47 45 44 43 43 43 42 42 43 43 44 46 47 47 48 49 50
53 53 54 55 55 54 53 54 57 58 56 52 50 50 50 50 50 49 49 49 50 52 55 53 49 47 47 45 44 44 44 44 45 46 47 48 49 49 50 51 51 52
56 56 57 58 58 57 56 56 56 57 57 55 54 52 51 52 52 51 50 48 46 48 52 52 48 47 47 46 45 45 46 47 48 49 50 50 51 51 52 53 53 55
58 59 59 60 61 61 59 59 59 60 62 61 59 55 52 53 53 51 51 49 46 47 49 48 46 46 46 46 46 47 48 50 50 51 52 53 53 53 54 55 56 57
61 61 62 63 65 64 63 62 62 63 63 61 58 56 53 53 53 52 52 50 47 47 46 44 44 45 46 46 47 49 51 52 52 53 53 54 55 56 57 58 59 60
60 61 62 63 63 61 60 59 60 62 62 60 60 59 56 55 55 54 55 54 50 45 43 42 43 44 45 46 48 50 52 53 53 54 54 56 57 58 60 60 61 63
59 60 60 60 60 58 56 56 56 56 57 58 59 59 58 57 54 51 51 50 45 40 40 41 43 44 45 47 48 51 52 53 54 55 56 57 59 60 61 62 63 65
59 59 58 58 58 57 56 55 54 52 52 53 54 56 57 56 51 47 44 41 38 38 41 42 43 45 46 48 49 51 53 54 55 56 57 59 60 61 62 63 64 67
59 59 58 58 57 55 56 57 55 52 51 49 49 51 53 52 48 45 42 41 40 44 46 44 44 46 47 49 51 53 54 56 57 58 59 60 61 62 63 64 67 70
Wind_Direction
262 261 261 260 259 257 255 254 253 254 256 257 257 257 257 258 259 260 261 262 263 262 261 259 257 255 253 252 252 253 254 255 256 256 256 256 256 256 257 257 258 259
262 261 261 261 261 259 258 256 255 255 255 256 258 257 257 256 257 258 258 259 259 259 260 261 260 259 258 256 255 254 254 254 256 256 257 257 258 259 259 259 259 260
261 261 261 261 261 260 260 259 257 255 255 255 256 258 258 257 257 256 256 256 256 256 256 257 258 258 259 259 258 257 256 256 256 256 257 257 258 259 261 261 262 262
262 262 262 262 262 262 261 261 260 258 256 254 255 256 257 257 257 257 256 256 256 256 256 257 257 258 259 260 260 260 260 259 258 258 258 258 259 259 261 262 263 263
263 264 265 265 265 265 265 264 263 262 260 257 256 255 256 256 257 258 258 258 258 258 258 259 259 260 260 261 261 261 261 261 261 260 260 259 259 259 260 262 263 264
265 267 268 268 268 268 267 267 266 265 264 263 260 259 258 257 258 258 259 259 260 260 260 260 261 262 263 263 263 263 263 263 263 263 262 262 261 260 259 260 261 263
267 269 271 272 272 271 269 268 267 267 266 265 265 263 262 261 260 260 261 261 262 263 264 264 264 265 265 266 266 266 267 267 266 266 265 265 264 263 262 261 260 260
267 270 271 273 274 274 273 271 271 271 270 270 270 269 268 267 265 264 263 263 264 265 265 266 267 267 268 268 269 269 269 269 269 269 269 268 268 267 266 265 264 263
269 270 270 271 273 274 274 273 274 274 275 277 278 279 278 275 272 269 266 265 264 265 266 267 269 271 271 272 272 272 272 272 271 271 271 271 271 270 269 268 267 267
273 273 271 270 271 272 273 274 274 273 274 276 279 280 281 280 278 274 272 269 268 269 270 273 275 276 276 276 276 275 274 274 274 273 273 272 272 272 272 271 271 270
275 274 271 270 271 273 274 275 273 271 269 270 274 277 278 279 278 277 276 275 274 275 276 278 280 280 280 280 280 278 277 276 275 274 274 274 274 273 273 273 273 273
270 268 267 270 275 277 278 278 276 275 273 272 274 276 278 278 278 278 278 278 278 278 278 280 282 282 281 281 281 280 279 278 276 276 275 275 276 276 277 277 277 277
265 263 265 271 276 278 278 279 279 278 278 277 276 277 277 278 277 277 277 278 279 279 280 281 283 282 280 280 280 278 278 277 277 277 277 278 279 280 281 282 282 283
263 263 265 270 274 275 275 277 278 278 278 278 277 276 276 277 277 276 276 277 278 278 279 281 282 282 280 279 277 276 275 275 275 277 278 279 281 283 285 286 287 287
263 264 266 269 271 272 275 277 276 275 276 277 276 275 274 276 278 277 274 274 276 277 277 279 281 282 280 279 276 274 273 273 274 276 278 281 283 285 287 288 289 289
266 267 269 271 272 274 275 274 272 273 274 275 274 274 273 274 278 278 275 274 275 276 276 278 280 280 279 278 275 273 273 274 275 277 279 281 283 285 286 288 289 290
266 267 269 270 271 270 267 266 268 271 271 270 271 272 273 276 278 279 278 277 275 275 276 278 279 278 276 274 273 273 274 275 276 278 280 281 283 284 285 286 287 288
265 266 267 267 268 267 263 261 264 265 265 267 269 271 274 277 278 277 278 279 277 274 274 277 277 275 272 270 270 272 274 276 278 279 280 281 281 282 283 285 286 287
266 265 266 266 266 266 265 264 263 262 262 267 271 273 273 276 277 277 279 281 279 274 273 275 274 270 268 268 269 271 274 276 278 279 279 279 280 281 282 283 284 285
266 265 265 265 266 265 265 264 263 261 262 269 275 276 274 274 277 279 278 279 280 276 273 271 270 267 266 267 269 272 274 276 277 277 277 277 278 279 281 282 283 284
266 266 266 266 266 266 264 263 262 262 265 271 274 274 273 274 276 279 278 278 279 277 272 268 266 265 266 268 271 273 274 275 275 275 275 276 277 278 279 280 282 283
263 264 264 265 266 267 267 266 264 264 266 269 270 270 271 272 275 278 279 279 279 276 269 265 264 265 268 271 273 274 273 273 273 273 274 275 276 277 278 279 280 282
260 261 262 263 265 266 268 267 266 266 265 265 266 268 269 271 274 278 279 278 275 270 265 263 266 269 272 274 274 273 273 272 272 273 274 275 276 277 278 278 279 280
258 258 260 262 263 264 265 265 265 267 266 265 266 267 268 270 273 279 280 273 267 265 268 271 273 274 276 275 274 273 272 272 273 274 275 276 276 277 278 278 279 280
257 256 257 259 260 262 264 265 266 267 267 267 265 264 264 265 268 275 276 264 261 274 281 280 279 277 275 274 273 273 273 273 275 276 276 277 277 277 278 279 280 282
257 257 256 257 257 259 262 263 264 266 266 265 263 262 263 263 266 273 268 255 264 283 286 282 280 277 274 274 274 274 275 276 277 278 278 278 278 279 281 281 282 283
Height
5726 5726 5727 5727 5728 5729 5729 5730 5731 5731 5731 5732 5732 5733 5733 5733 5734 5734 5735 5735 5736 5737 5738 5739 5740 5741 5742 5742 5743 5743 5743 5744 5744 5745 5746 5747 5748 5749 5750 5750 5751 5752
5723 5724 5724 5725 5725 5726 5726 5727 5728 5728 5729 5729 5729 5730 5730 5731 5731 5732 5732 5733 5733 5734 5734 5735 5736 5737 5738 5739 5739 5740 5740 5741 5741 5741 5742 5743 5743 5744 5745 5745 5746 5747
5720 5721 5721 5722 5722 5723 5723 5724 5725 5725 5726 5726 5727 5727 5728 5728 5729 5729 5730 5730 5731 5731 5732 5732 5733 5733 5734 5735 5735 5736 5737 5737 5738 5738 5739 5739 5739 5739 5740 5740 5741 5742
5717 5717 5718 5719 5719 5719 5720 5720 5721 5722 5723 5723 5724 5724 5725 5725 5726 5726 5727 5727 5728 5729 5729 5729 5730 5730 5730 5731 5731 5732 5733 5733 5734 5735 5735 5736 5736 5736 5736 5736 5736 5737
5713 5714 5715 5715 5716 5716 5717 5717 5718 5718 5719 5720 5721 5721 5722 5722 5722 5723 5723 5724 5725 5725 5726 5726 5726 5727 5727 5727 5728 5728 5728 5729 5730 5730 5731 5731 5732 5732 5733 5733 5732 5732
5710 5710 5711 5712 5712 5713 5713 5713 5714 5715 5715 5716 5717 5718 5718 5719 5719 5720 5720 5721 5721 5722 5722 5723 5723 5723 5723 5723 5723 5724 5724 5725 5725 5725 5726 5726 5727 5728 5728 5729 5729 5728
5707 5708 5708 5708 5709 5709 5709 5710 5710 5711 5712 5712 5713 5714 5714 5715 5716 5716 5717 5717 5717 5718 5718 5718 5719 5719 5719 5719 5719 5720 5720 5720 5720 5721 5721 5721 5722 5722 5723 5723 5724 5724
5705 5705 5705 5705 5705 5706 5706 5706 5707 5707 5707 5708 5709 5709 5710 5711 5712 5712 5713 5713 5713 5713 5714 5714 5714 5714 5715 5715 5715 5715 5715 5715 5716 5716 5716 5716 5716 5716 5717 5717 5718 5718
5702 5702 5702 5702 5702 5702 5702 5703 5703 5704 5704 5704 5705 5705 5706 5707 5708 5708 5709 5709 5709 5709 5709 5709 5709 5710 5710 5710 5710 5710 5710 5710 5711 5711 5711 5711 5711 5711 5711 5711 5712 5712
5699 5699 5699 5699 5698 5698 5698 5699 5699 5700 5700 5701 5701 5702 5702 5703 5703 5704 5704 5704 5705 5705 5705 5705 5705 5705 5705 5705 5705 5705 5705 5705 5705 5705 5705 5705 5705 5705 5705 5705 5706 5706
5695 5695 5695 5695 5695 5694 5694 5694 5694 5695 5696 5696 5696 5697 5697 5698 5698 5699 5699 5699 5699 5700 5699 5699 5699 5699 5699 5699 5699 5698 5698 5698 5698 5698 5698 5699 5699 5699 5699 5699 5699 5699
5690 5691 5691 5691 5691 5690 5689 5689 5690 5690 5691 5691 5692 5692 5692 5693 5693 5694 5694 5694 5694 5694 5694 5694 5694 5694 5693 5693 5693 5692 5692 5692 5692 5692 5692 5692 5692 5692 5692 5692 5693 5693
5687 5686 5686 5686 5686 5685 5685 5684 5684 5685 5685 5686 5686 5687 5687 5687 5688 5688 5688 5689 5689 5689 5689 5688 5688 5688 5688 5687 5687 5687 5687 5686 5686 5686 5686 5686 5686 5686 5686 5686 5686 5686
5682 5681 5681 5680 5680 5680 5679 5678 5678 5678 5679 5680 5681 5681 5682 5682 5682 5682 5683 5683 5683 5683 5683 5683 5683 5682 5682 5682 5682 5681 5681 5681 5680 5680 5680 5680 5680 5680 5680 5680 5680 5679
5676 5676 5675 5676 5675 5675 5673 5672 5671 5672 5672 5673 5674 5676 5676 5676 5676 5677 5677 5677 5677 5677 5677 5677 5677 5677 5677 5677 5676 5676 5675 5675 5675 5675 5675 5675 5675 5674 5674 5673 5673 5673
5670 5670 5671 5671 5671 5670 5668 5664 5662 5664 5666 5667 5668 5669 5670 5671 5671 5671 5671 5671 5671 5671 5671 5671 5671 5671 5671 5671 5670 5670 5669 5669 5669 5669 5669 5668 5668 5668 5668 5667 5666 5666
5664 5664 5665 5665 5665 5666 5665 5660 5656 5657 5659 5660 5661 5662 5664 5665 5665 5665 5665 5665 5665 5665 5665 5665 5665 5665 5665 5664 5664 5664 5664 5663 5663 5663 5662 5662 5662 5661 5661 5660 5659 5659
5656 5657 5657 5658 5658 5659 5659 5656 5652 5651 5652 5652 5654 5656 5657 5658 5659 5659 5659 5658 5658 5658 5659 5659 5659 5659 5658 5658 5658 5658 5657 5657 5657 5656 5656 5656 5655 5654 5654 5653 5652 5651
5648 5649 5650 5650 5650 5650 5651 5650 5648 5646 5646 5646 5648 5650 5651 5651 5652 5652 5652 5651 5651 5651 5652 5653 5652 5652 5651 5651 5651 5651 5651 5650 5650 5650 5650 5649 5648 5647 5646 5645 5644 5644
5640 5641 5642 5642 5642 5642 5643 5642 5641 5641 5640 5641 5642 5644 5644 5645 5645 5645 5645 5645 5645 5645 5646 5646 5645 5645 5644 5644 5644 5644 5644 5644 5643 5643 5643 5642 5641 5640 5639 5638 5636 5635
5632 5633 5633 5633 5633 5633 5635 5635 5635 5635 5635 5636 5637 5638 5638 5638 5638 5639 5639 5639 5639 5639 5639 5639 5638 5638 5638 5638 5638 5638 5637 5637 5636 5636 5636 5635 5634 5632 5631 5630 5628 5627
5623 5624 5624 5624 5624 5624 5626 5627 5628 5628 5630 5631 5631 5631 5631 5632 5632 5632 5632 5632 5633 5633 5632 5632 5632 5632 5632 5632 5631 5631 5630 5630 5629 5629 5628 5627 5626 5625 5623 5621 5619 5618
5614 5615 5615 5615 5616 5617 5618 5618 5619 5621 5623 5624 5624 5624 5625 5625 5626 5626 5626 5626 5627 5627 5627 5626 5626 5625 5625 5625 5624 5623 5623 5623 5622 5622 5621 5620 5618 5616 5614 5613 5611 5608
5605 5605 5606 5607 5609 5610 5610 5610 5611 5613 5614 5616 5617 5618 5619 5619 5620 5620 5619 5619 5620 5621 5621 5621 5620 5619 5618 5618 5617 5616 5615 5615 5614 5614 5613 5611 5609 5608 5605 5604 5602 5599
5595 5597 5599 5600 5602 5603 5603 5602 5604 5605 5607 5609 5610 5610 5611 5612 5613 5613 5613 5613 5614 5615 5615 5614 5613 5612 5611 5610 5609 5608 5607 5606 5605 5605 5604 5602 5600 5599 5597 5594 5592 5590
5586 5588 5591 5593 5595 5597 5597 5596 5597 5598 5600 5602 5603 5603 5604 5605 5606 5607 5607 5607 5608 5608 5608 5607 5607 5606 5605 5603 5602 5601 5599 5598 5597 5595 5594 5593 5591 5589 5587 5585 5582 5579